Location: Newark
(41.8083°N, 72.2500°W)
Time: 02:29:58
(UTC+00:00)

Courier 1B Rocket - All Passes

Search period start: 28 November 2021 00:00
Search period end: 08 December 2021 00:00
Orbit: 920 x 1202 km, 28.3° (Epoch: 27 November)

Date Brightness Start Highest point End Pass type
(mag) Time Alt. Az. Time Alt. Az. Time Alt. Az.
28 Nov - 05:07:00 10° S 05:09:59 14° SSE 05:13:00 10° SE night (unlit)
28 Nov - 06:57:34 10° SW 07:02:21 23° S 07:07:17 10° SE visible
28 Nov - 08:50:02 10° WSW 08:54:52 22° S 08:59:55 10° SE visible
28 Nov - 10:44:27 10° SW 10:47:22 13° SSW 10:50:21 10° S visible
29 Nov - 05:57:10 10° SW 06:01:37 20° S 06:06:08 10° ESE night (unlit)
29 Nov - 07:49:13 10° SW 07:54:05 23° S 07:59:08 10° SE visible
29 Nov - 09:42:46 10° SW 09:46:36 16° SSW 09:50:34 10° SSE visible
30 Nov - 04:56:59 10° SSW 05:00:55 17° SSE 05:04:51 10° SE night (unlit)
30 Nov - 06:48:31 10° SW 06:53:20 23° S 06:58:17 10° SE night (unlit)
30 Nov - 08:41:31 10° SW 08:45:50 19° SSW 08:50:17 10° SSE visible
01 Dec - 03:57:10 10° S 04:00:14 14° SSE 04:03:16 10° SE night (unlit)
01 Dec - 05:47:55 10° SW 05:52:36 22° S 05:57:20 10° SE night (unlit)
01 Dec - 07:40:30 10° SW 07:45:05 21° S 07:49:47 10° SE visible
01 Dec - 09:35:16 10° SW 09:37:30 12° SSW 09:39:44 10° S visible
02 Dec - 02:58:30 10° SSE 02:59:33 10° SSE 03:00:36 10° SSE night (unlit)
02 Dec - 04:47:26 10° SW 04:51:53 20° S 04:56:19 10° SE night (unlit)
02 Dec - 06:39:37 10° SW 06:44:20 23° S 06:49:08 10° SE night (unlit)
02 Dec - 08:33:21 10° SW 08:36:46 15° SSW 08:40:16 10° SSE visible
03 Dec - 03:47:08 10° SSW 03:51:10 18° SSE 03:55:09 10° SE night (unlit)
03 Dec - 05:38:50 10° SW 05:43:36 23° S 05:48:24 10° SE night (unlit)
03 Dec - 07:31:59 10° SW 07:36:03 18° SSW 07:40:11 10° SSE visible
04 Dec - 02:47:07 10° SSW 02:50:28 15° SSE 02:53:45 10° SE night (unlit)
04 Dec - 04:38:08 10° SW 04:42:52 22° S 04:47:34 10° SE night (unlit)
04 Dec - 06:30:52 10° SW 06:35:20 21° S 06:39:49 10° SE night (unlit)
04 Dec - 08:26:12 10° SW 08:27:41 11° SSW 08:29:09 10° S visible
05 Dec - 01:47:51 10° S 01:49:45 11° SSE 01:51:38 10° SE night (unlit)
05 Dec - 03:37:31 10° SW 03:42:09 21° S 03:46:40 10° SE night (unlit)
05 Dec - 05:29:54 10° SW 05:34:37 22° S 05:39:18 10° SE night (unlit)
05 Dec - 07:23:51 10° SW 07:27:00 14° SSW 07:30:10 10° SSE night (unlit)
06 Dec - 02:37:04 10° SSW 02:41:24 19° SSE 02:45:37 10° SE night (unlit)
06 Dec - 04:29:00 10° SW 04:33:53 23° S 04:38:40 10° SE night (unlit)
06 Dec - 06:22:21 10° SW 06:26:18 18° SSW 06:30:16 10° SSE night (unlit)
07 Dec - 01:36:53 10° SSW 01:40:39 16° SSE 01:44:20 10° SE visible
07 Dec - 03:28:10 10° SW 03:33:08 23° S 03:37:57 10° SE night (unlit)
07 Dec - 05:21:06 10° WSW 05:25:37 20° S 05:30:02 10° SE night (unlit)
07 Dec - 07:17:10 10° SSW 07:17:54 10° SSW 07:18:38 10° SSW night (unlit)
